Sioux City, IA

4:51 AM CDT on July 27, 2017 (GMT -0500)
Sioux Gateway

Weather History for KSUX - March, 2011

Change the Weather History Date:

Friday, March 4, 2011

  Actual Average Record
Temperature  
Mean Temperature 24 °F 31 °F  
Max Temperature 30 °F 41 °F 74 °F (2000)
Min Temperature 17 °F 21 °F -16 °F (1960)
Degree Days  
Heating Degree Days 41 34  
Month to date heating degree days 147 138  
Since 1 July heating degree days 5588 5432  
Cooling Degree Days 0 0  
Month to date cooling degree days 0 0  
Year to date cooling degree days 0 0  
Moisture  
Dew Point 19 °F    
Average Humidity 78    
Maximum Humidity 92    
Minimum Humidity 59    
Precipitation  
Precipitation T in 0.04 in 0.89 in (1915)
Month to date precipitation T 0.17  
Year to date precipitation 2.56 1.46  
Snow  
Snow 0.00 in 0.20 in 7.00 in (1915)
Month to date snowfall T 1.0  
Since 1 July snowfall 35.3 27.5  
Snow Depth 0.00 in    
Sea Level Pressure  
Sea Level Pressure 30.20 in    
Wind  
Wind Speed 19 mph (NNW)    
Max Wind Speed 26 mph    
Max Gust Speed 39 mph    
Visibility 7 miles    
Events Snow    
T = Trace of Precipitation, MM = Missing Value Source: NWS Daily Summary

Daily Weather History Graph

Daily Weather History Graph

Search for Another Location

Airport or City:

Trip Planner

Search our weather history database for the weather conditions in past years. The results will help you decide how hot, cold, wet, or windy it might be!

Date:

Astronomy

Mar. 04, 2011 Rise Set
Actual Time 6:56 AM CST 6:18 PM CST
Civil Twilight 6:28 AM CST 6:46 PM CST
Nautical Twilight 5:55 AM CST 7:19 PM CST
Astronomical Twilight 5:23 AM CST 7:52 PM CST
Moon 6:28 AM CST (3/4) 6:31 PM CST (3/4)
Length of Visible Light 12h 18m
Length of Day
11h 22m
Waning Crescent, 0% of the Moon is Illuminated
Mar 4
Waning Crescent
Mar 4
New
Mar 12
First Quarter
Mar 19
Full
Mar 26
Last Quarter

Hourly Weather History & Observations

Time (CST) Temp. Windchill Dew Point Humidity Pressure Visibility Wind Dir Wind Speed Gust Speed Precip Events Conditions
12:52 AM 30.0 °F 19.5 °F 28.0 °F 92% 30.02 in 5.0 mi NNW 13.8 mph - N/A   Scattered Clouds
1:09 AM 30.2 °F 20.8 °F 26.6 °F 86% 29.99 in 5.0 mi NNW 11.5 mph - N/A   Mostly Cloudy
1:25 AM 30.2 °F 19.8 °F 26.6 °F 86% 29.99 in 5.0 mi NNW 13.8 mph - N/A   Mostly Cloudy
1:35 AM 30.2 °F 19.8 °F 26.6 °F 86% 29.99 in 5.0 mi NNW 13.8 mph - N/A   Overcast
1:52 AM 30.0 °F 20.0 °F 27.0 °F 88% 30.02 in 5.0 mi NNW 12.7 mph - N/A   Overcast
2:52 AM 30.0 °F 17.2 °F 27.0 °F 88% 30.02 in 5.0 mi NNW 20.7 mph - N/A   Overcast
3:52 AM 28.0 °F 16.5 °F 26.1 °F 92% 30.04 in 5.0 mi NNW 15.0 mph - N/A   Overcast
4:52 AM 27.0 °F 13.5 °F 24.1 °F 89% 30.08 in 6.0 mi NW 19.6 mph - N/A   Overcast
5:52 AM 27.0 °F 14.3 °F 24.1 °F 89% 30.07 in 5.0 mi NNW 17.3 mph - N/A   Overcast
6:52 AM 26.1 °F 12.7 °F 21.9 °F 84% 30.11 in 7.0 mi NW 18.4 mph - N/A   Overcast
7:52 AM 26.1 °F 12.3 °F 21.9 °F 84% 30.14 in 6.0 mi NNW 19.6 mph - N/A   Overcast
8:52 AM 26.1 °F 13.6 °F 21.9 °F 84% 30.17 in 5.0 mi NW 16.1 mph - N/A   Overcast
9:52 AM 24.1 °F 10.1 °F 19.9 °F 84% 30.19 in 6.0 mi NNW 18.4 mph - N/A   Overcast
10:52 AM 24.1 °F 9.8 °F 19.9 °F 84% 30.21 in 6.0 mi NNW 19.6 mph - N/A   Overcast
11:52 AM 25.0 °F 12.6 °F 19.9 °F 81% 30.25 in 6.0 mi NNW 15.0 mph - N/A   Haze
12:52 PM 26.1 °F 12.7 °F 19.9 °F 78% 30.25 in 8.0 mi NNW 18.4 mph - N/A   Overcast
12:54 PM 26.6 °F 13.8 °F 19.4 °F 74% 30.20 in 8.0 mi NNW 17.3 mph - N/A   Overcast
1:52 PM 27.0 °F 13.2 °F 17.1 °F 66% 30.24 in 10.0 mi NNW 20.7 mph - N/A   Scattered Clouds
2:52 PM 28.0 °F 14.3 °F 16.0 °F 61% 30.24 in 10.0 mi North 21.9 mph 28.8 mph N/A   Clear
2:55 PM 28.4 °F 14.4 °F 15.8 °F 59% 30.19 in 10.0 mi NNW 23.0 mph 28.8 mph N/A   Scattered Clouds
3:48 PM 28.4 °F 15.1 °F 17.6 °F 64% 30.21 in 10.0 mi North 20.7 mph - N/A   Mostly Cloudy
3:52 PM 28.0 °F 15.3 °F 17.1 °F 63% 30.26 in 10.0 mi NNW 18.4 mph - N/A   Mostly Cloudy
4:52 PM 24.1 °F 8.7 °F 15.1 °F 69% 30.28 in 10.0 mi NNW 23.0 mph 28.8 mph N/A   Overcast
5:52 PM 21.9 °F 6.2 °F 14.0 °F 72% 30.32 in 10.0 mi NNW 21.9 mph - N/A   Overcast
6:52 PM 21.0 °F 5.0 °F 12.9 °F 71% 30.35 in 10.0 mi NNW 21.9 mph 29.9 mph N/A   Overcast
7:52 PM 19.9 °F 3.9 °F 10.9 °F 68% 30.39 in 10.0 mi North 20.7 mph - N/A   Overcast
8:52 PM 19.0 °F 3.2 °F 10.9 °F 71% 30.40 in 10.0 mi NNW 19.6 mph - N/A   Overcast
9:52 PM 19.0 °F 2.7 °F 12.9 °F 77% 30.41 in 4.0 mi NNW 20.7 mph - 0.00 in Snow Light Snow
10:52 PM 18.0 °F 0.9 °F 10.9 °F 74% 30.42 in 9.0 mi NNW 21.9 mph 26.5 mph 0.00 in   Overcast
11:52 PM 17.1 °F 1.0 °F 10.0 °F 74% 30.42 in 10.0 mi NNW 18.4 mph - N/A   Overcast